Van, Turkey

1:09 PM +03 on April 26, 2017 (GMT +0300)
Van

Weather History for LTCI - November, 2012

Change the Weather History Date:

Friday, November 9, 2012

  Actual Average Record
Temperature  
Mean Temperature 50 °F -  
Max Temperature 63 °F 47 °F 63 °F (2012)
Min Temperature 36 °F 30 °F 19 °F (2011)
Degree Days  
Heating Degree Days 16    
Moisture  
Dew Point 38 °F    
Average Humidity 58    
Maximum Humidity 87    
Minimum Humidity 28    
Precipitation  
Precipitation 0.00 in 0.05 in - ()
Sea Level Pressure  
Sea Level Pressure 30.06 in    
Wind  
Wind Speed 7 mph ()    
Max Wind Speed 18 mph    
Max Gust Speed 28 mph    
Visibility 6.3 miles    
Events Rain    
Averages and records for this station are not official NWS values.
T = Trace of Precipitation, MM = Missing Value Source: Averaged Metar Reports

Daily Weather History Graph

Daily Weather History Graph

Search for Another Location

Airport or City:

Trip Planner

Search our weather history database for the weather conditions in past years. The results will help you decide how hot, cold, wet, or windy it might be!

Date:

Astronomy

Nov. 09, 2012 Rise Set
Actual Time 5:41 AM EET 3:58 PM EET
Civil Twilight 5:14 AM EET 4:26 PM EET
Nautical Twilight 4:42 AM EET 4:58 PM EET
Astronomical Twilight 4:11 AM EET 5:29 PM EET
Moon 12:20 AM EET (11/9) 12:56 PM EET (11/9)
Length of Visible Light 11h 12m
Length of Day
10h 16m
Waning Crescent, 26% of the Moon is Illuminated
Nov 9
Waning Crescent
Nov 14
New
Nov 20
First Quarter
Nov 28
Full
Dec 6
Last Quarter

Hourly Weather History & Observations

Time (EET) Temp. Windchill Dew Point Humidity Pressure Visibility Wind Dir Wind Speed Gust Speed Precip Events Conditions
12:50 AM 39.2 °F 37.0 °F 33.8 °F 81% 30.09 in 6.2 mi ENE 3.5 mph - N/A   Mostly Cloudy
1:50 AM 37.4 °F 34.9 °F 32.0 °F 81% 30.09 in 6.2 mi East 3.5 mph - N/A   Mostly Cloudy
2:00 AM 38 °F - 32 °F 72%  in 7 mi East 3.5 mph - -   Partly Cloudy
2:50 AM 37.4 °F 33.8 °F 32.0 °F 81% 30.09 in 6.2 mi East 4.6 mph - N/A   Mostly Cloudy
3:50 AM 39.2 °F 37.0 °F 33.8 °F 81% 30.06 in 6.2 mi ENE 3.5 mph - N/A   Mostly Cloudy
4:50 AM 41.0 °F 39.0 °F 33.8 °F 76% 30.06 in 6.2 mi Variable 3.5 mph - N/A   Mostly Cloudy
5:50 AM 50.0 °F - 42.8 °F 76% 30.12 in 6.2 mi WNW 9.2 mph - N/A Rain Light Rain Showers
6:50 AM 48.2 °F - 44.6 °F 87% 30.15 in 6.2 mi Variable 1.2 mph - N/A   Mostly Cloudy
7:50 AM 50.0 °F - 44.6 °F 82% 30.12 in 6.2 mi Variable 1.2 mph - N/A Rain Light Rain Showers
8:00 AM 51 °F - 44 °F 68%  in 7 mi NE 1.2 mph - - Rain Light Rain Showers
8:50 AM 57.2 °F - 39.2 °F 51% 30.12 in 6.2 mi ESE 9.2 mph - N/A   Mostly Cloudy
9:50 AM 60.8 °F - 39.2 °F 45% 30.09 in 6.2 mi SSE 15.0 mph - N/A   Mostly Cloudy
10:50 AM 62.6 °F - 35.6 °F 37% 30.06 in 6.2 mi South 16.1 mph 27.6 mph N/A   Mostly Cloudy
11:50 AM 57.2 °F - 44.6 °F 63% 30.06 in 6.2 mi West 11.5 mph - N/A   Mostly Cloudy
12:50 PM 60.8 °F - 42.8 °F 52% 30.04 in 6.2 mi Variable 2.3 mph - N/A   Mostly Cloudy
1:50 PM 62.6 °F - 39.2 °F 42% 30.04 in 6.2 mi Variable 2.3 mph - N/A   Mostly Cloudy
2:00 PM 62 °F - 37 °F 28%  in 6 mi SSE 3.5 mph - -   Partly Cloudy
2:50 PM 60.8 °F - 41.0 °F 48% 30.04 in 6.2 mi SSW 10.4 mph - N/A   Mostly Cloudy
3:50 PM 59.0 °F - 37.4 °F 45% 30.04 in 6.2 mi SSE 11.5 mph - N/A   Scattered Clouds
4:50 PM 57.2 °F - 37.4 °F 48% 30.04 in 6.2 mi SE 16.1 mph - N/A   Scattered Clouds
5:50 PM 57.2 °F - 37.4 °F 48% 30.04 in 6.2 mi SE 15.0 mph - N/A   Scattered Clouds
6:50 PM 57.2 °F - 35.6 °F 44% 30.01 in 6.2 mi SE 16.1 mph - N/A   Scattered Clouds
7:50 PM 59.0 °F - 35.6 °F 42% 30.04 in 6.2 mi SSE 18.4 mph - N/A   Scattered Clouds
8:00 PM 59 °F - 35 °F 29%  in 7 mi SSE 18.4 mph - -   Partly Cloudy
8:50 PM 57.2 °F - 37.4 °F 48% 30.04 in 6.2 mi SSE 11.5 mph 24.2 mph N/A   Scattered Clouds
9:50 PM 55.4 °F - 37.4 °F 51% 30.04 in 6.2 mi ESE 18.4 mph - N/A   Scattered Clouds
10:50 PM 55.4 °F - 39.2 °F 54% 30.01 in 6.2 mi SE 16.1 mph - N/A   Scattered Clouds
11:50 PM 55.4 °F - 39.2 °F 54% 30.01 in 6.2 mi SE 13.8 mph - N/A   Mostly Cloudy